Location: Newark
(54.3386°S, 169.8415°W)
Time: 21:00:17
(UTC+00:00)

Transit 2A Rocket - Pass Details

Date: 28 October 2019
Orbit: 594 x 909 km, 66.7° (Epoch: 14 November)

Event Time Altitude Azimuth Distance (km) Brightness Sun altitude
Rises 07:14:00 0° 240° (WSW) 3,465 11.0 -7.1°
Reaches altitude 10° 07:16:53 10° 227° (SW) 2,565 9.4 -7.4°
Maximum altitude 07:21:54 26° 171° (S) 1,709 7.1 -8.0°
Drops below altitude 10° 07:27:01 10° 115° (ESE) 2,624 7.5 -8.6°
Sets 07:29:59 0° 102° (ESE) 3,560 8.1 -9.0°
